Regional Weather Roundup
Issued by NWS

Home | Current Version | Previous Version | Text Only | Print | Product List | Glossary Off
Versions: 1 2 3 4 5 6 7 8 9 10 11 12 13 14 15 16 17 18 19 20 21 22 23 24 25 26 27 28 29 30 31 32 33 34 35 36 37 38 39 40 41 42 43 44 45 46 47 48 49 50

388
ASUS45 KBOU 071007
RWRCO

WEATHER ROUNDUP FOR COLORADO
NATIONAL WEATHER SERVICE DENVER/BOULDER CO
300 AM MST WED DEC 07 2016

NOTE: "FAIR" INDICATES FEW OR NO CLOUDS BELOW 12000 FEET WITH NO
SIGNIFICANT WEATHER AND/OR OBSTRUCTIONS TO VISIBILITY.

COZ001>005-013-030-031-071100-
...NORTHWEST COLORADO...

CITY           SKY/WX    TMP DP  RH WIND       PRES   REMARKS
CRAIG          FLURRIES  14   9  80 CALM      29.93R
HAYDEN         FAIR      12   7  79 W3        29.89R
MEEKER         CLOUDY    14  12  92 CALM      29.91R
MOUNT WERNER   NOT AVBL
STEAMBOAT SPGS CLOUDY    12   9  85 S6        29.87R WCI   3
WALDEN           N/A      9   3  78 N9        29.79R WCI  -5
$$

COZ006>008-011-071100-
...WEST CENTRAL VALLEYS...

CITY           SKY/WX    TMP DP  RH WIND       PRES   REMARKS
GRAND JUNCTION FAIR      23  21  92 SW6       29.97R WCI  16
MONTROSE       LGT SNOW  24  23  96 S7        29.97R FOG     WCI  16
EAGLE          CLOUDY    19  13  77 W7        29.89R WCI  10
RIFLE          CLOUDY    23  19  85 W14       29.94R WCI  11
DELTA          NOT AVBL
NUCLA          NOT AVBL
$$

COZ017>023-064>068-071100-
...SOUTHWEST COLORADO...

CITY           SKY/WX    TMP DP  RH WIND       PRES   REMARKS
DURANGO        FAIR      28  17  63 W12       29.84R WCI  18
CORTEZ         CLOUDY    28  17  63 N9        29.93R WCI  19
PAGOSA SPRINGS FAIR      29  19  65 SW14      29.80S WCI  19
TELLURIDE      LGT SNOW  15  12  90 W9G17     29.88R VSB 1   WCI   3
WOLF CREEK PAS HVY SNOW  10  10 100 SW20G41   29.74R VSB 1/4 WCI  -8
$$

COZ009-010-012-014-032>034-037-058>063-071100-
...CENTRAL COLORADO...

CITY           SKY/WX    TMP DP  RH WIND       PRES   REMARKS
ASPEN          LGT SNOW  15  13  91 N6        29.82R FOG     WCI   6
BUENA VISTA    CLOUDY    19  10  66 NW14G20   29.76R WCI   6
COPPER MTN     CLOUDY     5  -4  66 MISG      29.62R
BERTHOUD PASS  LGT SNOW  -6 -17  59 NW29G37   29.56R VSB 3/4 WCI -33
COTTONWOOD PAS LGT SNOW  18  10  73 NW3G18    29.70R
GUNNISON       FLURRIES  19  14  81 SW14G20   29.83R WCI   6
KREMMLING      FAIR      19   9  63 W9        29.83R WCI   9
LEADVILLE      LGT SNOW   6   1  80 NW9       29.72R WCI  -8
MONARCH PASS   HVY SNOW   5   1  85 W36G45    29.72R VSB 1/4 WCI -21
SALIDA         CLOUDY    15  10  82 SE7       29.86R WCI   5
SUNLIGHT       CLOUDY     3   0  85 SW6G18    29.78R WCI  -8
WILKERSON PASS CLOUDY     5   1  85 NW12G18   29.66S WCI -11
$$

COZ069>075-071100-
...SAN LUIS VALLEY/SANGRE DE CRISTO MOUNTAINS...

CITY           SKY/WX    TMP DP  RH WIND       PRES   REMARKS
ALAMOSA        MOCLDY    29  15  56 W16       29.74R WCI  17
LA VETA PASS   CLOUDY    19  10  68 NE17G38   29.68F WCI   4
SAGUACHE       CLOUDY    23  12  63 NW23G32   29.77R WCI   7
$$

COZ035-036-038>040-071100-
...NORTHERN COLORADO FRONT RANGE...

CITY           SKY/WX    TMP DP  RH WIND       PRES   REMARKS
DENVER INTL AP MOCLDY    14  11  87 NE5       29.92R WCI   6
DMNS CITY PARK   N/A     17  14  90 NE8       29.93S WCI   6
AURORA         MOCLDY    13  11  93 CALM      29.91R
FRONT RANGE AP FLURRIES  16  14  93 CALM      29.93R
ERIE MUNI ARPT LGT SNOW  17  15  93 CALM      29.95R
BOULDER MUN AP LGT SNOW  19  18  93 NE3       29.93R
CENTENNIAL     CLOUDY    13   9  84 CALM      29.89R
BROOMFIELD     LGT SNOW  18  16  93 E5        29.91R WCI  11
FORT COLLINS   FAIR      18  16  93 E7        29.96R WCI   8
LONGMONT       LGT SNOW  20  17  88 E6        29.97R WCI  13
$$

COZ041-046-047-076>085-087-088-071100-
...PIKES PEAK/PALMER DIVIDE AND SOUTHERN FOOTHILLS...

CITY           SKY/WX    TMP DP  RH WIND       PRES   REMARKS
COLO. SPRINGS  MOCLDY    13   6  74 N15       29.86R WCI  -3
A. F. ACADEMY  CLOUDY    12   7  79 N8        29.85R WCI   1
SCHRIEVER AFB  NOT AVBL
ELLICOTT       FAIR     N/A N/A N/A E20         N/A
FALCON         FLURRIES  10   5  82 N10       29.84R WCI  -4
FORT CARSON    FAIR      14   8  75 N17       29.84R WCI  -2
LIMON          LGT SNOW  14  12  92 E14       29.87F FOG     WCI  -1
MONUMENT HILL  FLURRIES   9   5  85 CALM      29.83R
TRINIDAD       FAIR      15  -2  46 NW6       29.86R WCI   6
$$

COZ042>045-048>051-090-091-071100-
...NORTHEAST COLORADO...

CITY           SKY/WX    TMP DP  RH WIND       PRES   REMARKS
GREELEY ARPT   LGT SNOW  18  15  88 E10       29.99R FOG     WCI   6
AKRON          NOT AVBL
BURLINGTON     CLOUDY    22   8  55 NE14      30.00R WCI   9
WRAY           NOT AVBL
STERLING       MOCLDY    16  12  86 NE9       30.02S WCI   4
HOLYOKE        LGT SNOW  19  14  79 NE14      30.08F WCI   6
FORT MORGAN    LGT SNOW  17  14  90 NE10      29.98R WCI   4
$$

COZ086-089-092>099-071100-
...SOUTHEAST COLORADO...

CITY           SKY/WX    TMP DP  RH WIND       PRES   REMARKS
PUEBLO         FAIR      17   5  59 N8        29.90R WCI   7
LA JUNTA       MOCLDY    15   5  64 N12       29.88R WCI   2
LAMAR          FAIR      12   3  67 E5        29.91R WCI   4
SPRINGFIELD      N/A     10   6  84 SE13      29.84R WCI  -5
$$




USA.gov is the U.S. government's official web portal to all federal, state and local government web resources and services.